星链-36556(STARLINK-36556)

导读 | 豆包AI

STARLINK-36556是美国SpaceX星链项目的卫星,于2026年1月30日发射升空。作为星链星座的组成部分,它将为全球范围提供高速低延迟互联网覆盖,服务包括偏远地区网络接入、机载海事联网等场景,进一步完善星链星座的全球服务能力,推进SpaceX近地轨道巨型星座组网进程。

基本信息
目录编号:
67642
目录名称:
STARLINK-36556
国际标识:
2026-020AB
轨道中心:
EARTH
卫星名称:
星链-36556
卫星全名:
星链-36556(STARLINK-36556)
卫星状态:
在轨 (已飞行43 天)
发射日期:
2026-01-30 UTC
国别 :
美国 (US)
星等 :
--
轨道信息
数据来源 国际轨道数据
星历时间: 2026-03-14T06:00:02+0800
7小时前
查看轨道信息
半长轴: 6793.173km
偏心率: 0.0002018
轨道倾角: 43.000°
近地点辐角 267.472°
升交点赤经 116.937°
平近点角 254.311°
近地点: 413.665km
远地点: 416.407km
周期: 92.869分钟
每日圈数: 15.505785
详细信息
固有亮度:
5
最大亮度:
2.5
卫星平台:
Starlink V1.0
覆盖范围:
全球
运营商:
太空探索技术公司
运营商所在国:
美国
制造商(研发单位):
太空探索技术公司
制造商所在国:
美国
使用方式:
暂无
卫星简介
Starlink 计划是 SpaceX 推出的全球卫星互联网项目,通过发射低轨道卫星,为全球尤其是偏远地区提供高速、低延迟的互联网服务。自 2019 年起,Starlink 已部署数千颗卫星,旨在缩小全球数字鸿沟,推动互联网普及。该项目还为军事、航空等行业提供通信支持,带来广泛经济效益。
2D轨道图
3D轨道图
轨道高度分析图
轨道倾角分析图
轨道综合分析图
查看轨道综合分析图